SCP
0 0 0 0 0 0 0 0 0 0 0 0 0 0 0 0 0 0 0 0 0 0 0 0 0 0 0 0 0 0 0 0 0 0 0 0 0 0 0 0 0 0 0
0 0 0 0 0 0 0 0 0 0 0 0 0 0 0 0 0 0 0 0 0 0 0 0 0 0 0 0 0 0 0 0 0 0 0 0 0 0 0 0 0 0 0
0 0 0 0 0 0 0 0 0 0 0 0 0 0 0 0 0 0 0 0 0 0 0 0 0 0 0 0 0 0 0 0 0 0 0 0 0 0 0 0 0 0 0
0 0 0 0 0 0 0 0 0 0 0 0 0 0 0 0 0 0 0 0 0 0 0 0 0 0 0 0 0 0 0 0 0 0 0 0 0 0 0 0 0 0 0
0 0 0 0 0 0 0 0 0 0 0 0 0 0 0 0 0 0 0 0 0 0 0 0 0 0 0 0 0 0 0 0 0 0 0 0 0 0 0 0 0 0 0
0 0 0 0 0 0 0 0 0 0 0 0 0 0 0 0 0 0 0 0 0 0 0 0 0 0 0 0 0 0 0 0 0 0 0 0 0 0 0 0 0 0 0
0 0 0 0 0 0 0 0 0 0 0 0 0 0 0 0 0 0 0 0 0 0 0 0 0 0 0 0 0 0 0 0 0 0 0 0 0 0 0 0 0 0 0
0 0 0 0 0 0 0 0 0 0 0 0 0 0 0 0 0 0 0 0 0 0 0 0 0 0 0 0 0 0 0 0 0 0 0 0 0 0 0 0 0 0 0
0 0 0 0 0 0 0 0 0 0 0 0 0 0 0 0 0 0 0 0 0 0 0 0 0 0 0 0 0 0 0 0 0 0 0 0 0 0 0 0 0 0 0
0 0 0 0 0 0 0 0 0 0 0 0 0 0 0 0 0 0 0 0 0 0 0 0 0 0 0 0 0 0 0 0 0 0 0 0 0 0 0 0 0 0 0
0 0 0 0 0 0 0 0 0 0 0 0 0 0 0 0 0 0 0 0 0 0 0 0 0 0 0 0 0 0 0 0 0 0 0 0 0 0 0 0 0 0 0
0 0 0 0 0 0 0 0 0 0 0 0 0 0 0 0 0 0 0 0 0 0 0 0 0 0 0 0 0 0 0 0 0 0 0 0 0 0 0 0 0 0 0
0 0 0 0 0 0 0 0 0 0 0 0 0 0 0 0 0 0 0 0 0 0 0 0 0 0 0 0 0 0 0 0 0 0 0 0 0 0 0 0 0 0 0
0 0 0 0 0 0 0 0 0 0 0 0 0 0 0 0 0 0 0 0 0 0 0 0 0 0 0 0 0 0 0 0 0 0 0 0 0 0 0 0 0 0 0
0 0 0 0 0 0 0 0 0 0 0 0 0 0 0 0 0 0 0 0 0 0 0 0 0 0 0 0 0 0 0 0 0 0 0 0 0 0 0 0 0 0 0
0 0 0 0 0 0 0 0 0 0 0 0 0 0 0 0 0 0 0 0 0 0 0 0 0 0 0 0 0 0 0 0 0 0 0 0 0 0 0 0 0 0 0
0 0 0 0 0 0 0 0 0 0 0 0 0 0 0 0 0 0 0 0 0 0 0 0 0 0 0 0 0 0 0 0 0 0 0 0 0 0 0 0 0 0 0
0 0 0 0 0 0 0 0 0 0 0 0 0 0 0 0 0 0 0 0 0 0 0 0 0 0 0 0 0 0 0 0 0 0 0 0 0 0 0 0 0 0 0
0 0 0 0 0 0 0 0 0 0 0 0 0 0 0 0 0 0 0 0 0 0 0 0 0 0 0 0 0 0 0 0 0 0 0 0 0 0 0 0 0 0 0
0 0 0 0 0 0 0 0 0 0 0 0 0 0 0 0 0 0 0 0 0 0 0 0 0 0 0 0 0 0 0 0 0 0 0 0 0 0 0 0 0 0 0
0 0 0 0 0 0 0 0 0 0 0 0 0 0 0 0 0 0 0 0 0 0 0 0 0 0 0 0 0 0 0 0 0 0 0 0 0 0 0 0 0 0 0
0 0 0 0 0 0 0 0 0 0 0 0 0 0 0 0 0 0 0 0 0 0 0 0 0 0 0 0 0 0 0 0 0 0 0 0 0 0 0 0 0 0 0
0 0 0 0 0 0 0 0 0 0 0 0 0 0 0 0 0 0 0 0 0 0 0 0 0 0 0 0 0 0 0 0 0 0 0 0 0 0 0 0 0 0 0
0 0 0 0 0 0 0 0 0 0 0 0 0 0 0 0 0 0 0 0 0 0 0 0 0 0 0 0 0 0 0 0 0 0 0 0 0 0 0 0 0 0 0
0 0 0 0 0 0 0 0 0 0 0 0 0 0 0 0 0 0 0 0 0 0 0 0 0 0 0 0 0 0 0 0 0 0 0 0 0 0 0 0 0 0 0
0 0 0 0 0 0 0 0 0 0 0 0 0 0 0 0 0 0 0 0 0 0 0 0 0 0 0 0 0 0 0 0 0 0 0 0 0 0 0 0 0 0 0
Wind_Speed
5 4 3 3 4 3 4 4 4 5 5 5 5 6 6 6 6 5 4 10 12 15 16 17 17 16 16 16 16 16 16 16 16 15 15 16 16 16 16 16 16 16 15
5 5 4 4 4 4 4 5 5 5 5 4 5 6 6 6 6 6 6 7 12 14 17 17 17 17 16 16 16 16 16 16 15 15 15 16 16 17 17 17 17 17 17
7 6 5 5 5 5 5 4 5 4 4 4 6 6 6 6 6 7 6 5 6 10 14 17 17 16 16 16 16 15 15 15 15 15 15 15 16 16 17 17 17 17 17
8 6 5 5 5 4 4 4 4 4 4 4 4 5 5 5 7 7 6 6 5 5 8 13 14 15 15 15 15 15 15 15 15 14 13 14 15 16 16 17 17 18 18
8 7 6 5 5 4 4 4 4 4 4 4 5 4 5 5 6 6 7 7 6 5 5 7 10 12 14 15 15 15 15 15 14 14 13 13 14 15 15 16 16 17 17
9 7 6 6 5 4 4 4 5 4 4 4 4 5 5 6 5 6 7 5 5 6 5 5 5 6 10 13 14 15 15 15 14 13 13 13 14 14 15 15 16 16 17
8 8 6 6 6 6 6 6 5 5 5 2 2 4 5 5 6 6 4 4 5 5 4 4 4 3 4 9 12 14 14 14 14 13 13 13 13 14 15 16 16 16 17
8 8 8 7 7 6 7 7 6 4 3 4 3 2 4 4 3 4 3 4 4 3 3 4 3 4 3 3 6 10 12 13 13 13 13 13 13 14 15 15 16 16 16
8 8 8 7 7 7 7 7 7 7 5 4 4 4 3 4 3 3 2 2 2 2 3 3 3 4 4 3 3 6 8 10 11 12 12 13 13 14 14 15 15 15 15
7 7 7 7 7 6 7 6 6 6 6 5 4 5 5 3 2 3 3 2 2 3 3 2 3 3 2 2 3 4 6 7 9 10 11 12 13 13 14 14 15 15 15
5 6 6 6 7 6 6 6 5 6 6 6 5 3 5 5 5 5 5 3 2 2 2 2 2 2 2 2 2 4 6 6 7 8 9 10 12 13 13 14 14 15 15
4 5 5 5 6 5 6 6 6 6 6 6 5 4 3 3 4 5 6 5 4 3 2 2 1 2 2 2 3 5 5 6 7 8 8 9 10 11 12 13 14 14 15
4 5 5 5 5 5 5 5 5 5 6 5 5 4 4 4 2 3 4 4 4 3 2 1 1 1 2 2 2 5 5 7 7 8 8 9 9 10 11 12 13 13 13
4 3 4 4 4 4 4 4 4 4 3 4 4 4 3 3 3 3 3 3 4 3 2 2 1 1 2 2 3 5 4 7 7 8 8 8 9 9 10 11 12 12 12
2 3 3 4 3 3 3 3 2 2 2 3 3 3 3 2 2 2 2 2 3 5 4 2 1 2 2 2 4 3 4 7 8 8 9 9 9 10 10 11 12 12 12
2 2 2 3 3 2 2 3 2 2 2 2 1 1 1 1 1 1 1 1 2 3 4 2 1 2 3 3 5 4 4 7 7 9 9 9 9 10 10 11 11 12 12
2 2 2 2 2 2 2 2 3 2 2 1 1 1 1 0 1 1 1 1 1 2 4 3 2 2 3 4 4 4 4 4 5 8 9 9 10 10 11 11 12 12 12
2 2 2 2 2 2 2 2 3 2 2 2 1 1 1 1 1 1 1 1 1 1 3 4 3 3 3 4 4 4 4 4 5 8 9 9 10 11 12 12 12 12 12
2 2 2 2 2 2 2 2 2 2 2 2 1 1 1 1 1 1 1 1 1 1 1 2 3 3 3 3 4 4 4 4 5 7 9 9 10 11 12 12 12 12 11
2 2 2 2 2 2 2 2 2 2 2 1 1 1 0 0 1 1 0 1 1 1 1 1 2 2 3 3 3 4 5 4 5 5 6 8 10 11 11 12 12 12 11
3 2 3 3 2 2 2 3 2 3 2 2 2 2 2 2 2 2 1 1 1 1 1 1 2 2 3 4 4 4 6 6 5 2 5 5 6 5 6 9 10 11 12
3 3 3 3 3 2 4 5 4 3 3 3 2 2 3 2 3 4 4 3 2 1 1 2 2 3 4 4 4 4 5 5 6 3 4 6 4 5 5 5 10 12 12
3 3 3 3 3 4 6 6 5 4 3 2 2 2 2 2 2 2 4 4 4 4 3 2 2 3 4 4 4 5 5 5 6 5 5 6 4 5 5 7 13 13 12
3 3 3 3 3 4 6 7 6 4 4 3 3 2 2 2 2 2 2 3 3 3 3 2 2 3 3 3 3 4 5 6 6 4 3 5 5 5 6 6 10 12 12
3 3 3 3 3 3 6 6 6 3 3 4 3 3 2 2 3 4 3 2 3 3 4 5 4 4 6 6 5 3 3 4 5 4 2 3 5 7 6 5 6 11 13
3 3 4 3 3 3 5 5 5 3 3 3 2 2 2 3 4 4 3 2 2 2 3 4 4 5 5 5 6 3 3 3 4 4 3 3 4 5 6 4 5 6 7
Wind_Direction
200 199 203 202 205 204 206 215 225 234 240 245 244 242 245 246 246 245 253 255 256 260 267 272 274 275 274 272 270 270 267 265 262 258 256 256 256 255 255 253 253 253 253
198 196 202 206 209 208 210 214 220 227 235 238 246 245 246 247 249 249 248 254 254 258 264 271 275 277 277 277 275 273 271 270 268 265 261 258 258 257 256 255 254 253 252
199 200 204 211 213 208 210 216 224 227 238 241 249 251 250 250 253 253 253 250 254 256 259 266 272 276 278 278 279 279 277 275 274 272 268 264 262 262 260 258 257 255 253
201 201 208 216 212 206 206 212 217 225 237 241 249 253 253 256 257 257 256 254 252 255 258 261 266 271 276 279 281 282 283 282 281 279 277 274 272 269 267 265 262 259 256
204 203 211 214 208 209 212 217 218 217 234 244 251 256 256 256 259 260 259 258 253 251 252 259 260 264 270 276 280 283 285 285 285 285 282 281 278 275 274 272 270 267 263
207 207 212 211 204 211 218 217 222 222 228 237 254 263 261 260 258 256 258 260 256 255 254 258 263 267 267 274 280 284 287 289 290 290 289 287 284 282 280 278 275 273 270
208 209 213 211 209 216 220 216 218 226 233 217 248 281 276 261 256 255 252 253 259 260 258 258 257 259 271 275 280 283 288 292 294 296 296 293 291 289 286 284 281 278 274
211 212 214 214 212 217 220 219 215 217 221 193 199 248 297 308 289 265 253 249 256 260 263 262 258 258 263 268 280 284 289 294 298 301 301 300 299 297 294 292 289 286 282
211 212 215 214 213 214 224 222 217 217 226 214 200 198 231 258 301 301 283 264 262 263 269 272 268 268 269 270 281 294 296 297 300 303 305 304 302 301 300 298 295 292 289
211 211 212 212 213 215 223 223 218 219 218 223 215 218 223 212 248 297 302 294 286 268 270 278 278 280 285 285 295 307 307 303 302 302 304 304 304 304 303 302 300 299 296
212 213 213 213 216 218 221 218 215 217 218 222 215 207 224 233 229 246 275 289 300 276 268 265 274 292 304 313 314 323 320 313 310 309 308 307 307 307 305 304 304 303 302
215 220 217 215 218 220 220 220 217 217 221 222 223 215 204 215 224 232 253 269 274 274 269 263 284 299 317 322 328 334 334 331 327 322 319 316 315 313 309 308 307 306 307
217 225 218 221 223 224 223 218 216 221 220 219 222 225 223 229 224 227 244 262 269 272 266 280 294 318 331 331 332 336 340 339 336 332 330 330 329 327 323 316 313 313 312
216 213 209 217 223 222 220 218 222 226 222 221 225 224 229 235 232 229 231 250 273 274 260 259 334 338 330 335 341 341 341 344 338 332 331 331 329 329 327 323 319 315 312
201 195 198 204 212 213 210 204 213 220 216 222 226 227 235 249 250 250 251 241 251 271 274 271 287 344 341 347 352 344 341 346 342 340 337 334 332 331 327 325 322 320 318
191 181 185 191 195 198 196 191 196 203 190 208 207 207 232 264 280 289 274 276 256 256 270 284 292 337 345 347 349 344 340 343 339 340 339 337 339 338 334 330 325 321 319
158 163 174 176 179 184 187 184 186 172 181 195 203 200 235 247 255 274 273 277 274 261 265 283 305 329 336 339 341 341 338 332 327 332 332 335 336 336 334 331 329 326 323
133 147 149 146 146 157 167 173 178 177 181 185 192 179 244 266 259 276 273 274 279 275 260 274 297 322 324 330 332 331 333 331 322 328 331 332 333 334 330 327 326 324 322
100 97 106 118 125 131 130 144 156 156 164 175 177 173 222 225 263 283 286 287 294 311 292 273 291 310 314 333 332 326 323 326 324 324 326 329 331 329 325 324 323 321 319
97 93 96 102 106 107 107 113 115 114 113 100 87 89 60 270 269 274 304 307 310 326 328 305 296 309 313 322 330 324 325 330 319 322 326 325 323 323 323 323 320 317 316
85 90 93 90 85 93 101 110 115 115 114 99 79 67 58 52 45 43 48 0 345 333 332 318 309 317 322 334 331 326 317 318 307 313 319 316 314 312 315 316 314 312 314
86 85 85 91 85 81 97 106 112 112 110 107 96 77 66 66 57 56 54 47 39 9 315 300 301 309 315 321 322 322 319 324 312 322 320 305 304 301 304 302 309 313 312
92 85 80 83 85 90 96 99 104 112 107 99 95 87 64 49 63 68 62 54 37 28 12 318 305 304 313 321 321 318 318 307 290 301 312 297 304 299 304 307 309 308 313
99 96 88 87 89 91 95 95 99 100 97 90 86 86 83 57 48 62 69 58 42 30 17 357 331 326 332 337 332 314 305 298 289 291 306 290 305 303 307 301 304 312 318
100 98 94 88 89 86 91 96 101 102 98 89 81 78 87 76 61 70 74 61 32 13 21 22 14 5 2 357 355 348 333 331 310 305 324 303 305 311 304 299 311 323 322
110 103 91 82 86 84 88 91 98 104 104 94 80 70 72 70 67 71 74 80 48 2 357 359 7 3 357 352 355 347 323 311 306 297 327 326 307 326 313 303 316 321 317